Faith, SD

2:37 PM MST on December 10, 2016 (GMT -0700)
Faith

Weather History for KD07 - October, 2011

Change the Weather History Date:

Friday, October 28, 2011

  Actual Average Record
Temperature  
Mean Temperature 41 °F 42 °F  
Max Temperature 54 °F 53 °F 79 °F (2016)
Min Temperature 28 °F 31 °F 21 °F (1999)
Degree Days  
Heating Degree Days 24 23  
Month to date heating degree days 374 496  
Since 1 July heating degree days 541 728  
Cooling Degree Days 0 0  
Month to date cooling degree days 26 0  
Year to date cooling degree days 699 634  
Moisture  
Dew Point 18 °F    
Average Humidity 52    
Maximum Humidity 85    
Minimum Humidity 19    
Precipitation  
Precipitation 0.00 in 0.06 in 0.24 in (2002)
Month to date precipitation 0.49 1.38  
Year to date precipitation 17.67 16.56  
Sea Level Pressure  
Sea Level Pressure 30.19 in    
Wind  
Wind Speed 10 mph (WNW)    
Max Wind Speed 18 mph    
Max Gust Speed 25 mph    
T = Trace of Precipitation, MM = Missing Value Source: NWS Daily Summary

Daily Weather History Graph

Daily Weather History Graph

Search for Another Location

Airport or City:

Trip Planner

Search our weather history database for the weather conditions in past years. The results will help you decide how hot, cold, wet, or windy it might be!

Date:

Astronomy

Oct. 28, 2011 Rise Set
Actual Time 7:20 AM MDT 5:42 PM MDT
Civil Twilight 6:50 AM MDT 6:12 PM MDT
Nautical Twilight 6:15 AM MDT 6:46 PM MDT
Astronomical Twilight 5:41 AM MDT 7:21 PM MDT
Moon 9:46 AM MDT (10/28) 6:58 PM MDT (10/28)
Length of Visible Light 11h 22m
Length of Day
10h 21m
Waxing Crescent, 5% of the Moon is Illuminated
Oct 28
Waxing Crescent
Nov 2
First Quarter
Nov 10
Full
Nov 18
Last Quarter
Nov 24
New

Hourly Weather History & Observations

Time (MDT) Temp. Windchill Dew Point Humidity Pressure Visibility Wind Dir Wind Speed Gust Speed Precip Events Conditions
12:56 AM 28.9 °F 21.1 °F 24.1 °F 82% 30.19 in - WNW 8.1 mph - N/A   Unknown
1:56 AM 30.0 °F 21.1 °F 24.1 °F 79% 30.20 in - WNW 10.4 mph - N/A   Unknown
2:56 AM 30.0 °F 21.7 °F 23.0 °F 75% 30.21 in - WNW 9.2 mph - N/A   Unknown
3:56 AM 28.9 °F 20.4 °F 21.9 °F 75% 30.22 in - WNW 9.2 mph - N/A   Unknown
4:56 AM 28.0 °F 19.3 °F 19.9 °F 72% 30.24 in - WNW 9.2 mph - N/A   Unknown
5:56 AM 28.9 °F 19.2 °F 19.9 °F 69% 30.26 in - WNW 11.5 mph - N/A   Unknown
6:56 AM 28.9 °F 19.8 °F 21.0 °F 72% 30.25 in - West 10.4 mph - N/A   Unknown
7:56 AM 30.9 °F 22.2 °F 21.9 °F 69% 30.28 in - West 10.4 mph - N/A   Unknown
8:56 AM 37.0 °F 30.4 °F 24.1 °F 59% 30.28 in - WNW 9.2 mph - N/A   Unknown
9:56 AM 42.1 °F 34.5 °F 21.9 °F 45% 30.27 in - NW 15.0 mph - N/A   Unknown
10:56 AM 46.9 °F - 21.9 °F 37% 30.27 in - WNW 8.1 mph - N/A   Unknown
11:56 AM 50.0 °F - 21.0 °F 32% 30.25 in - NW 11.5 mph - N/A   Unknown
12:56 PM 51.1 °F - 16.0 °F 25% 30.23 in - WNW 13.8 mph 19.6 mph N/A   Unknown
1:56 PM 53.1 °F - 14.0 °F 21% 30.19 in - NW 16.1 mph 20.7 mph N/A   Unknown
2:56 PM 53.1 °F - 12.0 °F 20% 30.17 in - WNW 12.7 mph - N/A   Unknown
3:56 PM 53.1 °F - 14.0 °F 21% 30.17 in - WNW 11.5 mph - N/A   Unknown
4:56 PM 48.9 °F - 14.0 °F 25% 30.17 in - NW 4.6 mph - N/A   Unknown
5:56 PM 44.1 °F - 14.0 °F 30% 30.17 in - Calm Calm - N/A   Unknown
6:56 PM 46.0 °F 43.9 °F 14.0 °F 28% 30.14 in - ESE 4.6 mph - N/A   Unknown
7:56 PM 43.0 °F 37.7 °F 14.0 °F 31% 30.14 in - SE 9.2 mph - N/A   Unknown
8:56 PM 36.0 °F 28.5 °F 16.0 °F 44% 30.12 in - SSE 10.4 mph - N/A   Unknown
9:56 PM 37.9 °F 30.0 °F 15.1 °F 39% 30.09 in - SSE 12.7 mph - N/A   Unknown
10:56 PM 37.0 °F 28.5 °F 14.0 °F 39% 30.05 in - SSE 13.8 mph - N/A   Unknown
11:56 PM 34.0 °F 25.0 °F 15.1 °F 46% 30.03 in - SSE 12.7 mph - N/A   Unknown